Location: Castelnau
(43.6639°N, 0.8431°W)
Time: 16:00:11
(UTC+00:00)

Cosmos 1833 Rocket - Pass Details

Date: 13 January 2026
Orbit: 831 x 839 km, 71.0° (Epoch: 11 February)

Event Time Altitude Azimuth Distance (km) Brightness Sun altitude
Exits shadow 05:41:17 27° 326° (NW) 1,571 3.7 -20.0°
Maximum altitude 05:44:26 70° 249° (WSW) 890 2.6 -19.5°
Drops below altitude 10° 05:49:59 10° 166° (SSE) 2,436 5.4 -18.5°
Sets 05:52:25 0° 164° (SSE) 3,365 6.2 -18.1°
